User: anonymous   Login
Location: Unspecified
(0.0000°N, 0.0000°E)
Time: 22:41:54
(UTC+00:00)
Language:

ONEWEB-0595 - Orbit

View from above orbital plane
View from above orbital plane
View from above satellite
View from above satellite

Ground track
Ground track

The orbit is defined by the following mean orbital elements,

1 54661U          26145.54677878 +.00000000 +00000-0 +17909-3 0 00004
2 54661  87.9260 248.4759 0001837 105.8163 254.3174 13.21825760    09
Epoch (UTC): 25 May 2026 13:07:21
Eccentricity: 0.0001837
inclination: 87.9260°
perigee height: 1176 km
apogee height: 1179 km
right ascension of ascending node: 248.4759°
argument of perigee: 105.8163°
revolutions per day: 13.21825760
mean anomaly at epoch: 254.3174°

The dashed part of the orbit path shows where the satellite is in the earth's shadow,  

DLR